Powrót do katalogu

NOAA 16 DEB

AktywnyPO
NORAD 41293·DEBRIS·🇺🇸 United States

Wystrzelony Sep 21, 2000 z Vandenberg Space Force Base

Loading…

Następne Przeloty (najbliższe 24 godziny)

TLE

ŚwieżeSource: Space-Track

Epoka: Sep 14, 2026, 18:29 UTC

1 41293U 00055GV  26257.77058256  .00008012  00000-0  23278-2 0  9996
2 41293  98.8925  10.6150 0018130 268.0439  91.8674 14.44479151553727

Śledź NOAA 16 DEB w czasie rzeczywistym z AllMySat

Download on the App Store